{"data":{"norad_id":56019,"epoch":"2026-05-24T20:30:54.218016Z","epoch_age_seconds":81412,"freshness":"FRESH","line1":"1 56019U 23042AK  26144.85479419  .00000466  00000+0  26488-4 0  9993","line2":"2 56019  43.0053 335.1159 0001966 276.4516  83.6112 15.27575825174682","mean_motion":15.27575825,"eccentricity":0.0001966,"inclination_deg":43.0053,"raan_deg":335.1159,"arg_perigee_deg":276.4516,"mean_anomaly_deg":83.6112,"bstar":2.6488e-5,"rev_number":17468,"period_min":94.267006353023,"perigee_km":481.7126858758,"apogee_km":484.41050916435,"semimajor_km":6861.1985975201,"source":"CELESTRAK","updated_at":"2026-05-25T13:38:17.928847Z"}}